SL-14 DEB, 45295

Orbit data source: Space-Track

SL-14 DEB, 45295 is space debris in LEO originally from a launch on Thu, 15 Aug 1991 UTC launched from the Plesetsk Missile And Space Complex (PKMTR). Debris objects in space refer to the collection of defunct objects orbiting the Earth. Examples of debris include non-operational satellites, rocket bodies, and fragments generated from explosions, collisions, or faulty payload assembly.

Loading next visibility...
Identifier
45295, 1991-056AH
Orbit
LEO
Last TLE update
21 hours ago
Origin
Manufacturer
Unknown
Mission
Spacecraft
Bus & Motor
Unknown
Mass
Unknown
Launch date (UTC)
1991-08-15 (34 years ago)
Launch vehicle
Unknown
Launch site
Plesetsk Missile And Space Complex (PKMTR)
Object type
Payload
Rocket body
Debris
Shape & HBR
Unknown
Radar Cross Section
Small (<0.1 m²)

Expand to show TLE details & history

TLE from 21 hours ago
0 SL-14 DEB
1 45295U 91056AH  25181.46979608  .00000631  00000-0  11325-2 0  9996
2 45295  82.5726 344.0280 0080771  53.3058 307.5463 13.38917712260665
Epoch: 2025-06-30T11:16Z
TLE epoch observation values (Epoch: 2025-06-30T11:16:30.381Z)
Latitude
-0.00002°
Longitude
-103.87774°
Altitude
1,079.581 km
Speed
7.33 km/s
True Right ascension
22h 56m 06s
True Declination
0° 00' 00"
Sunlit
Object was in daylight at epoch
Visualization orbit readout
Latitude
-39.30403°
Longitude
-110.62331°
Altitude
1,128.226 km
Speed
7.288 km/s
Apparent Right ascension
02h 18m 38s
Apparent Declination
-69° 51' 04"
Sunlit
Object is in full shadow
Visualization observer readout
Local Sidereal Time
20:14:10
Azimuth
154.304° SSE
Elevation
-37.413°
Doppler factor
1
Orbital elements
Apogee altitude
1,171.013 km
Perigee altitude
1,050.04 km
Semi-major axis
7,488.664 km
Eccentricity
0.00808
Inclination
82.5726°
RAAN
344.028°
Arg. of periapsis
53.3058°
True anomaly
Unknown
Mean anomaly
307.5463°
Eccentric anomaly
Unknown
Mean motion
3.34917 °/min
Orbital period
107.49 mins
BSTAR
0.0011325
Loading maneuver chart data...
Loading SW <> Apogee altitude chart data...
Loading historical data...
Loading historical data...
Loading historical data...
Loading historical data...
Loading historical data...
Loading historical data...
Loading historical data...

SL-14 DEB Visibility forecast

Observer location: undefined°, undefined°

Span
Click to sort rows by Start time (UTC) header in descending order
Start Az.
Max El. time (UTC)
Max El. Az.
Max El.
End time (UTC)
End Az.
10 mins2025-07-01 10:42:01.661Z148.127° SSE2025-07-01 10:47:01.661Z90.121° ESE30.41°2025-07-01 10:52:01.661Z29.165° NE
10 mins2025-07-01 12:31:01.661Z229.474° WSW2025-07-01 12:35:01.661Z277.527° WNW29.375°2025-07-01 12:41:01.661Z348.427° N
11 mins2025-07-01 21:57:01.661Z12.48° NNE2025-07-01 22:02:01.661Z81.03° E34.499°2025-07-01 22:08:01.661Z145.838° SSE
9 mins2025-07-01 23:46:01.661Z321.105° NNW2025-07-01 23:50:01.661Z272.766° WNW27.081°2025-07-01 23:55:01.661Z219.398° SW
|